Wind_Speed
21 22 23 24 26 27 28 29 29 30 30 31 32 33 33 33 33 32 30 29 27 26 25 25 26 26 25 25 27 27 27 28 28 29 32 29 27 27 25 24 24 23 23 21 22 22 21 22 23 22 23 23 23 23 22 26 27 25 24 23 25 28 28 29 31 32 32 32 31 32 32 33 33 34 35 36 37 39 40 40 40 40 39 38 38 38 38 38
23 25 26 28 29 29 29 30 30 31 32 32 34 34 34 33 32 30 29 28 27 25 25 25 25 25 24 24 26 27 26 26 26 28 31 29 27 27 26 25 24 23 23 22 21 22 23 24 24 24 24 23 24 24 25 29 28 25 25 25 27 30 30 32 33 34 34 34 34 34 34 34 35 35 36 37 39 41 42 42 42 42 41 41 40 40 39 39
26 28 29 30 30 30 30 30 31 32 33 34 34 34 33 32 30 29 28 27 26 25 25 24 23 23 23 23 25 25 24 25 26 28 29 28 27 27 26 25 24 23 23 22 20 21 24 25 25 26 25 24 23 24 28 30 27 26 26 25 29 32 32 34 35 35 36 36 36 36 36 36 36 37 38 39 41 43 44 45 45 44 43 42 41 40 39 39
28 29 30 30 30 30 30 31 32 33 33 34 34 33 32 31 29 27 26 25 25 25 24 23 22 22 23 22 23 23 22 25 27 27 28 27 27 26 25 25 24 24 23 21 20 22 25 27 26 26 26 25 23 25 30 31 27 27 27 27 31 33 34 35 36 37 37 38 38 38 37 38 39 40 40 42 43 45 47 47 47 46 46 44 43 41 40 40
29 30 31 31 31 31 31 31 32 32 33 33 32 31 29 28 26 25 23 22 23 23 23 22 22 22 22 22 23 21 21 26 27 25 26 27 26 26 25 25 24 25 23 21 21 23 25 27 27 28 27 24 25 27 30 31 28 26 27 29 32 34 35 36 37 38 38 39 39 38 38 39 41 42 42 43 45 46 48 48 49 48 47 46 44 42 41 41
30 31 32 32 32 32 32 32 32 32 32 31 30 29 28 27 25 23 22 21 21 22 21 20 21 22 23 23 23 22 22 25 26 25 25 25 25 25 26 25 24 24 23 21 23 25 25 26 28 29 26 24 27 28 30 31 29 25 28 31 32 35 36 36 38 38 38 39 39 38 39 40 42 43 44 44 46 47 48 49 49 49 48 47 45 43 42 41
31 32 33 33 33 33 32 32 32 32 31 30 29 28 27 27 25 24 22 21 20 20 19 19 20 21 23 24 25 24 22 23 24 24 25 24 24 25 26 26 25 24 22 22 24 25 24 25 30 29 25 25 28 28 30 30 29 26 28 32 33 35 36 36 37 37 38 39 39 39 40 41 42 44 45 45 46 47 48 49 50 50 49 48 45 44 42 42
32 32 33 33 33 32 32 32 32 32 31 30 28 27 27 26 24 23 22 20 20 19 18 18 18 20 22 24 27 26 21 21 23 24 24 23 23 25 25 25 26 25 23 23 24 23 24 27 30 29 26 26 27 29 30 29 28 28 29 32 33 35 35 36 37 37 38 38 39 40 40 42 43 44 45 46 47 48 49 50 50 50 49 48 46 45 43 42
32 32 32 32 32 32 32 32 31 31 30 28 27 26 25 24 23 22 21 20 19 19 18 18 17 19 21 23 27 26 21 20 23 23 23 22 22 24 25 25 25 25 23 23 24 23 25 28 28 29 26 25 27 29 29 27 28 29 30 32 33 34 34 35 36 37 37 38 39 40 41 42 43 45 46 47 47 48 50 50 51 51 50 49 47 45 44 43
31 31 32 32 32 31 31 30 30 29 28 26 25 24 23 22 22 21 21 20 19 19 18 17 17 19 21 22 25 26 21 21 21 22 22 22 22 23 24 25 24 24 23 24 24 24 26 27 26 28 27 25 27 29 29 27 27 29 30 31 32 33 33 34 35 36 37 37 38 40 42 43 44 45 45 47 48 49 51 51 52 52 51 50 48 46 45 44
30 31 31 31 31 30 29 29 28 27 26 25 24 23 22 21 20 20 19 19 20 21 18 16 14 17 21 23 24 24 21 21 20 21 21 21 22 22 22 24 24 23 23 24 24 25 26 26 26 27 25 25 27 28 28 27 27 28 29 31 31 31 32 33 34 35 36 37 38 39 41 43 45 45 46 48 49 50 52 52 53 53 53 52 50 48 45 44
30 30 30 29 29 28 28 27 27 26 25 24 23 22 21 21 20 19 18 18 19 21 19 16 13 15 21 24 23 22 21 20 18 20 21 19 21 21 22 23 23 23 23 24 24 25 25 25 27 26 24 26 26 27 27 27 27 27 28 30 30 30 31 32 33 34 35 36 37 38 40 43 45 46 47 48 50 51 53 54 54 54 54 54 53 50 47 46
30 29 29 28 27 27 26 26 25 24 23 23 22 21 21 20 19 18 17 18 19 19 18 18 16 14 18 23 22 20 19 19 17 18 20 19 18 20 21 21 20 21 22 25 24 24 24 25 27 24 22 26 26 25 26 26 26 26 28 29 28 29 30 32 32 33 34 35 36 37 39 42 45 47 47 48 50 51 53 54 55 56 55 55 55 54 51 48
29 28 27 27 26 26 25 25 24 23 22 21 20 20 20 20 19 18 17 18 18 19 17 17 15 13 17 21 21 18 18 17 15 16 19 18 17 19 20 19 18 19 20 23 24 23 22 22 27 24 21 25 25 24 25 24 24 25 27 28 27 28 30 31 31 32 33 34 36 37 39 42 45 47 48 48 49 51 53 55 56 57 57 57 57 56 54 51
28 27 27 26 25 25 24 24 23 23 22 21 20 20 20 20 20 19 19 18 17 19 18 15 12 14 18 19 18 17 17 16 15 14 16 17 17 17 18 17 16 17 18 21 22 23 21 20 25 24 21 23 24 23 24 23 24 24 25 26 27 28 29 30 30 31 32 33 35 36 38 41 44 47 48 49 49 51 53 56 58 59 59 59 58 59 58 55
27 27 26 25 25 24 24 23 23 22 21 21 20 20 21 21 21 21 20 19 18 18 18 17 12 13 18 18 16 17 15 14 14 14 14 16 16 16 16 16 15 15 16 18 20 21 20 18 22 23 21 21 21 22 22 22 23 23 23 25 26 27 27 28 29 30 31 32 34 35 38 40 43 47 48 49 49 51 53 55 57 59 60 60 59 60 60 58
26 26 25 25 24 24 23 23 22 21 21 21 21 21 21 21 22 22 21 20 20 18 17 19 14 12 17 18 15 15 12 12 13 13 14 14 14 14 14 14 14 14 14 15 18 19 17 16 19 20 20 19 19 20 20 20 21 22 23 24 24 26 26 27 28 29 30 31 32 34 36 39 42 45 48 49 49 50 52 54 57 58 60 60 60 60 61 60
26 25 24 24 23 23 23 22 21 21 20 20 20 20 20 21 21 21 21 20 19 17 14 17 16 14 16 17 15 13 11 11 12 12 13 13 12 12 12 13 12 12 12 13 15 16 14 14 16 17 17 17 17 18 18 19 20 21 22 23 23 24 25 26 27 28 29 30 31 33 35 38 41 45 48 49 49 50 52 53 56 58 60 61 61 61 61 62
25 24 23 23 23 22 22 22 21 20 20 19 19 18 19 20 21 20 20 19 19 17 14 15 16 15 15 15 14 12 11 10 10 11 11 11 11 10 10 11 11 10 10 11 13 13 12 11 13 14 15 15 15 16 17 18 19 19 21 21 22 23 24 25 26 27 28 30 31 32 35 38 41 44 47 49 49 49 50 52 54 57 59 60 61 61 61 61
24 23 23 22 22 21 21 21 21 19 19 19 18 18 17 18 20 20 20 18 17 17 14 14 15 14 14 14 12 11 10 10 9 9 10 9 9 9 9 9 9 8 8 9 10 10 9 9 10 11 12 13 13 14 16 17 18 19 20 20 21 22 23 24 25 26 27 29 30 32 34 36 39 43 46 48 49 49 49 51 53 55 57 58 60 61 61 61
22 22 22 21 21 20 20 20 19 18 17 17 17 17 17 16 17 18 18 18 16 16 15 13 14 14 13 13 11 10 9 9 8 7 8 8 8 8 8 8 7 7 7 7 8 8 7 7 8 9 10 11 12 13 15 16 17 18 19 20 21 21 22 23 24 25 26 27 29 30 32 35 38 41 44 47 49 49 49 50 51 53 55 57 58 60 61 61
21 21 20 20 19 19 19 18 17 16 15 15 15 15 15 14 14 12 14 17 15 14 15 14 13 13 12 11 10 9 8 7 7 6 6 7 7 7 7 6 6 5 6 6 6 5 4 5 7 8 9 11 12 13 14 15 17 17 19 19 20 21 21 22 23 25 26 27 28 29 30 33 37 40 43 45 47 49 49 49 50 52 53 55 57 58 59 60
19 19 18 17 17 17 17 17 16 14 13 12 12 13 13 13 13 10 10 15 14 12 13 13 12 12 10 10 9 9 7 6 6 5 5 6 6 6 5 5 5 4 4 4 4 3 3 4 6 7 9 10 11 13 14 15 16 17 18 19 19 20 21 21 22 24 26 26 27 28 29 32 35 38 41 44 46 48 49 49 49 50 52 53 55 57 59 60
18 17 16 16 15 15 15 15 14 13 12 12 11 11 11 11 12 9 8 12 13 11 11 11 11 11 10 9 8 8 7 6 5 5 4 5 5 4 4 4 4 3 2 2 2 2 3 4 5 7 8 10 11 12 14 15 16 17 18 18 19 20 20 20 21 23 25 25 26 26 27 30 33 36 39 42 44 46 48 48 48 49 50 51 53 56 58 59
17 16 16 15 14 13 13 13 13 12 11 11 9 9 10 9 10 8 7 10 11 9 9 9 9 9 9 8 7 7 6 5 4 4 4 4 4 4 4 3 2 2 1 1 1 2 3 4 5 6 8 9 11 12 14 15 16 17 18 18 19 19 20 20 21 22 23 24 25 26 27 29 32 34 37 39 41 43 45 47 48 48 48 50 52 54 56 57
16 15 15 14 13 12 11 11 10 10 10 10 8 8 8 8 8 7 6 7 9 8 8 8 7 7 7 7 7 6 6 5 4 3 3 3 3 3 3 3 2 1 0 1 2 3 4 5 6 7 8 9 11 12 13 15 16 17 18 18 18 19 19 20 20 21 22 24 25 25 26 28 30 33 35 37 39 41 43 45 46 48 48 49 50 52 53 55
15 14 14 13 12 11 11 10 9 9 9 9 8 7 7 7 6 7 6 6 7 8 8 7 7 6 7 7 7 6 5 4 4 3 3 3 2 3 3 2 1 0 1 2 3 4 5 6 7 8 9 10 11 12 13 15 16 17 18 18 18 18 19 19 20 20 22 23 24 24 25 27 28 31 33 35 37 38 41 43 45 47 49 49 49 50 52 54
14 14 13 12 12 11 11 10 9 8 9 9 8 8 7 7 6 6 6 6 7 8 7 7 6 6 7 7 7 6 5 4 3 3 3 3 2 2 2 2 1 1 2 2 3 4 5 7 8 8 9 10 12 13 14 16 17 17 17 17 18 18 18 19 20 20 20 21 22 23 25 26 27 30 31 33 35 37 39 41 43 46 48 49 49 49 50 52
14 13 13 12 11 11 10 10 9 9 8 8 8 8 8 7 6 6 7 7 7 7 7 7 7 6 6 7 6 5 4 3 2 2 3 3 3 2 2 2 1 2 3 3 4 5 6 7 8 9 10 11 12 13 15 16 16 16 16 16 17 18 19 19 20 20 20 20 21 23 24 25 26 29 30 32 33 35 37 38 41 44 46 48 49 49 49 50
14 13 12 11 10 9 9 8 8 7 7 7 7 7 7 6 6 6 7 7 7 7 8 8 7 7 7 7 6 4 3 3 3 3 3 3 3 2 2 3 2 2 3 4 4 5 5 6 8 9 10 11 13 14 15 15 15 15 15 15 17 18 19 20 20 20 20 20 21 22 23 24 25 27 29 31 32 34 35 36 38 41 43 46 48 49 49 49
13 11 10 9 8 7 7 6 6 5 5 6 6 6 6 6 6 7 7 7 6 7 7 7 7 7 8 7 5 4 4 4 4 4 4 3 3 2 2 3 4 3 3 5 5 5 5 6 7 8 10 11 13 14 15 15 15 15 15 16 16 17 18 19 20 20 21 21 21 21 22 24 25 26 28 29 31 32 34 35 37 39 41 43 45 47 48 49
11 10 8 7 6 6 5 5 5 5 4 5 5 5 6 6 6 7 6 6 6 7 7 7 8 9 8 6 5 4 4 5 5 5 4 4 3 3 3 4 4 4 4 5 6 6 5 6 7 9 10 12 13 14 15 16 16 16 16 16 16 16 17 18 20 20 21 22 22 22 22 23 24 25 27 28 30 31 32 34 35 37 39 41 43 45 46 48
9 8 6 5 5 5 4 4 5 5 5 5 5 5 6 6 7 7 6 6 6 7 7 8 9 9 8 6 5 5 5 5 5 4 4 4 3 3 3 4 5 5 5 5 6 7 7 7 9 10 11 12 14 15 16 16 17 17 16 16 16 17 17 19 20 21 22 23 23 24 23 23 24 25 26 28 29 30 32 33 34 36 37 38 40 42 44 45
7 6 6 5 5 4 4 5 5 6 6 6 6 6 6 6 7 7 7 6 7 7 8 9 10 10 8 7 6 5 4 4 4 4 3 3 2 2 3 4 4 5 5 5 6 7 7 8 9 10 11 13 14 15 16 17 17 17 17 17 18 18 19 20 21 22 23 24 24 25 24 24 25 25 26 27 28 29 30 32 34 34 35 36 38 39 41 42
7 7 6 6 5 5 4 4 5 5 6 7 8 7 7 6 7 8 7 7 7 8 8 10 11 10 9 7 6 5 4 4 3 3 2 2 1 2 2 3 4 4 5 5 5 6 7 8 9 11 12 14 15 15 16 17 17 17 18 19 19 19 20 21 22 23 23 24 25 25 25 25 25 25 26 27 28 29 30 31 33 34 34 35 35 37 38 40
8 8 8 7 6 6 6 5 5 5 5 7 8 9 8 7 7 8 8 8 8 9 9 10 11 10 9 8 6 5 3 3 2 2 1 1 1 2 3 4 4 5 5 5 6 6 7 8 9 11 13 14 15 16 16 17 18 18 18 19 19 20 20 21 22 23 23 24 25 25 26 26 26 26 26 27 28 29 30 31 31 33 34 34 34 35 36 37
9 9 9 8 8 7 7 7 6 6 6 7 8 9 8 7 7 7 8 8 9 9 9 10 10 11 10 9 7 5 4 3 3 2 1 1 2 3 4 5 5 6 6 6 7 7 9 10 10 12 13 14 16 16 17 18 18 18 18 19 20 20 21 22 22 23 23 23 25 26 27 27 27 27 27 27 28 29 30 31 31 32 33 34 34 33 34 35
9 10 9 9 8 8 8 8 8 8 8 7 7 7 7 7 7 7 8 9 9 9 9 9 10 10 10 10 9 7 6 5 4 3 3 3 3 4 5 6 6 7 8 8 8 9 10 11 12 13 14 15 16 17 18 18 18 18 18 19 20 21 22 23 24 24 25 25 25 25 26 27 28 28 28 28 29 29 30 30 31 31 32 32 33 33 33 33
10 10 9 8 8 8 8 8 8 8 8 8 8 7 7 6 6 7 8 8 9 9 9 9 9 9 9 10 9 8 8 7 6 5 5 5 5 6 6 7 7 8 9 9 9 10 11 12 13 14 15 15 17 18 19 19 18 18 18 19 21 22 23 24 26 26 27 27 26 26 27 28 28 29 30 30 30 30 30 30 31 31 32 32 33 33 33 33
10 10 9 9 8 8 8 8 8 8 8 8 8 7 7 7 7 7 7 7 8 8 8 8 7 7 7 8 8 8 8 8 8 7 7 7 7 8 8 8 9 9 10 10 11 11 12 13 14 14 15 15 17 18 20 20 19 18 19 19 20 22 23 24 26 27 28 28 28 28 28 29 30 31 31 31 31 31 31 31 31 31 32 32 33 33 33 33
10 9 9 9 8 8 8 8 8 8 8 8 7 7 8 8 8 8 7 7 7 7 7 6 5 5 5 5 5 6 6 7 7 8 8 9 9 9 9 10 10 11 11 12 12 13 13 14 14 15 15 16 17 19 20 20 19 19 19 19 20 22 24 25 26 26 27 28 28 29 29 29 30 31 31 31 32 31 31 31 31 31 32 32 32 32 32 33
9 9 9 9 8 9 9 9 9 9 8 8 8 8 9 9 9 9 8 7 7 6 6 5 4 4 3 3 3 3 4 5 6 7 8 9 10 10 11 11 11 12 12 12 13 13 14 14 14 15 16 16 17 19 20 20 20 20 19 19 20 21 23 25 26 26 27 28 28 28 29 29 29 29 30 31 31 31 32 32 32 32 32 32 32 32 32 32
9 9 9 9 8 9 9 9 10 10 10 9 9 9 9 9 9 9 9 8 8 7 6 5 4 3 2 1 1 1 3 4 5 6 7 8 9 9 10 10 11 12 12 13 13 14 14 14 15 16 16 17 18 18 19 20 21 21 20 19 20 21 22 25 26 26 27 28 28 28 28 29 29 29 30 32 32 32 32 32 32 32 32 32 32 32 33 32
9 9 9 9 9 9 9 10 10 10 10 10 10 10 9 9 9 9 9 8 8 7 6 5 4 4 3 2 2 2 2 3 4 5 6 6 7 8 9 10 10 11 12 13 14 14 14 15 15 16 17 17 18 18 18 20 21 21 21 21 21 22 23 24 25 26 26 27 29 29 28 30 31 30 31 33 33 32 32 32 32 32 32 32 33 33 33 33
9 9 9 9 9 9 9 10 9 9 10 10 10 9 9 8 8 8 8 8 7 7 7 6 6 5 5 4 4 4 4 4 4 5 5 6 7 7 8 9 10 11 12 12 13 13 14 14 15 16 17 17 18 19 19 20 20 21 21 22 23 24 24 25 25 26 26 26 28 30 29 30 33 33 32 34 34 33 33 32 32 32 33 32 32 33 33 33
10 10 9 9 9 9 9 9 9 9 9 9 9 9 8 8 8 8 8 8 8 8 8 8 8 7 7 7 6 6 6 6 6 7 7 7 8 8 8 8 9 10 10 11 12 12 13 13 14 15 16 17 18 19 20 20 20 21 21 21 23 24 25 26 26 26 27 27 28 29 29 29 33 35 35 35 35 34 33 32 32 32 33 33 33 33 33 33
10 10 10 9 9 9 9 8 8 8 9 9 9 9 9 9 9 9 9 9 9 9 9 9 8 8 8 8 8 8 7 8 8 8 9 9 9 9 10 10 10 10 10 11 11 12 13 13 14 15 16 17 18 19 20 20 20 21 22 22 23 25 25 26 27 27 28 29 29 30 30 31 32 34 36 35 34 34 33 32 32 32 32 33 33 33 33 33
11 10 10 10 9 9 9 8 8 8 8 9 9 9 9 9 9 9 9 9 9 9 9 8 8 8 8 8 8 8 8 8 9 9 9 10 10 11 11 11 12 12 12 12 12 13 13 14 15 16 17 17 17 18 19 20 21 22 23 24 25 26 27 27 28 29 29 30 31 31 33 34 33 33 35 36 35 34 33 33 32 32 32 33 33 33 33 33
11 10 10 10 9 9 9 8 8 8 8 9 8 8 8 8 8 8 9 8 8 8 7 7 7 7 7 7 7 8 8 9 10 10 11 12 12 12 12 12 13 13 13 13 13 14 14 14 14 16 18 18 17 18 19 20 22 23 24 26 26 27 28 28 29 30 30 30 31 32 33 34 34 34 34 35 34 34 34 34 33 33 33 33 33 33 32 33
11 11 10 10 9 9 9 9 8 8 8 8 8 7 7 7 7 7 7 7 6 6 5 5 5 4 5 5 5 7 7 8 9 10 11 12 13 14 14 14 15 15 15 14 15 14 14 14 14 15 17 19 19 19 20 22 23 24 25 26 27 28 28 29 29 30 31 30 31 33 33 33 34 35 34 34 33 33 34 35 34 33 33 33 33 33 32 32
13 12 11 10 9 9 10 9 9 8 8 7 7 7 6 6 5 5 5 5 4 4 3 3 2 2 2 3 4 5 6 7 9 10 12 13 14 15 15 16 16 17 17 17 17 17 16 16 16 15 16 19 19 20 20 22 24 26 26 27 28 29 29 30 31 32 32 31 31 33 33 34 34 35 34 33 33 32 33 34 34 33 33 32 32 32 32 32
14 13 12 11 10 10 10 9 9 9 9 8 7 7 6 6 5 5 4 4 3 3 2 1 1 1 2 3 3 5 6 7 9 10 12 13 15 15 16 17 18 18 19 19 20 20 19 19 19 18 17 19 20 20 20 22 24 26 27 28 28 29 29 30 31 33 33 32 32 33 34 35 35 35 34 34 33 32 32 32 33 32 32 32 32 32 32 32
Wind_Direction
115 115 116 116 116 117 116 115 115 114 115 116 115 114 112 109 106 103 100 98 97 95 95 96 98 100 103 107 109 110 112 111 111 109 107 107 106 106 105 104 104 102 101 98 97 100 98 92 88 83 80 77 76 75 71 68 65 62 61 57 51 52 52 50 49 46 44 42 39 37 33 30 28 26 25 23 20 18 16 14 11 8 5 1 357 353 348 344
116 118 119 119 119 120 119 118 117 117 117 117 114 111 110 108 105 103 100 98 97 95 96 96 98 102 106 110 112 113 115 114 112 108 105 106 107 106 105 104 102 101 100 98 96 98 95 90 88 84 81 79 77 77 72 68 66 63 61 55 52 54 52 50 49 46 44 42 39 36 34 31 29 28 26 24 22 20 17 15 13 9 6 2 359 354 349 345
120 122 122 121 121 122 121 119 119 118 118 115 112 110 109 107 105 103 101 99 98 97 95 95 99 104 109 114 115 118 120 116 110 106 106 109 109 107 106 104 102 100 98 97 97 95 93 90 87 85 84 81 77 75 72 70 66 63 62 55 53 55 52 50 48 46 44 43 40 38 36 33 32 30 28 26 23 22 20 18 15 11 8 4 359 354 349 345
123 124 123 122 121 121 119 119 119 118 116 113 111 110 109 107 105 103 102 100 98 96 97 99 102 106 111 116 117 121 122 113 107 106 109 110 109 107 106 104 101 99 96 96 97 94 92 91 87 85 85 82 76 71 71 71 66 62 62 56 54 55 53 50 48 47 45 43 41 39 37 35 33 31 29 27 25 23 21 18 15 12 9 4 359 354 348 344
124 124 121 120 119 117 117 117 116 115 113 112 110 110 108 106 104 104 103 102 100 98 98 101 106 109 112 116 118 121 117 108 105 107 110 110 109 108 106 102 99 98 98 98 96 93 92 92 89 86 84 81 75 71 70 71 68 61 59 57 54 54 53 50 48 47 45 44 41 38 36 35 33 31 30 28 26 23 21 18 15 12 8 4 359 354 349 345
123 122 120 119 118 117 117 116 115 113 112 110 110 109 108 105 104 103 101 100 100 99 100 105 110 114 118 121 120 116 109 105 106 110 112 111 110 109 107 103 98 95 98 99 95 93 93 90 88 87 85 78 74 72 69 68 69 62 56 57 54 53 53 49 48 46 44 43 40 36 34 34 33 31 29 27 26 23 21 18 15 12 8 4 359 354 349 345
122 120 119 119 118 118 117 116 114 112 111 110 110 110 108 106 105 104 101 99 98 98 101 107 113 120 126 126 118 109 107 108 110 113 114 112 110 108 107 105 102 98 97 97 94 94 92 86 87 89 85 77 74 72 67 65 67 62 54 55 53 51 51 48 47 45 43 41 38 35 33 33 32 30 29 27 25 23 20 17 14 12 9 5 0 355 350 346
121 120 120 120 119 119 117 116 114 113 112 111 110 109 108 106 105 104 103 103 102 101 101 105 114 123 127 125 115 108 110 113 113 116 114 112 111 108 106 105 104 102 98 96 93 94 88 84 88 88 82 77 74 71 67 64 63 60 54 53 52 50 49 47 45 43 41 39 36 33 31 31 31 30 29 27 25 23 20 17 14 12 9 5 1 357 352 348
121 121 121 120 119 118 117 116 114 113 112 112 111 109 108 106 104 102 101 100 101 105 108 110 117 122 123 121 113 109 113 116 115 116 115 114 110 107 106 105 104 103 101 97 95 91 85 85 87 85 82 77 72 69 67 63 59 57 54 51 50 48 47 45 43 41 39 37 35 32 30 29 29 29 28 27 25 23 21 18 16 13 10 7 3 358 354 350
122 122 121 120 120 118 117 116 114 114 113 112 111 109 108 106 105 104 102 100 102 104 106 109 117 123 122 117 110 110 117 117 116 117 116 114 109 105 106 106 106 104 102 99 95 89 85 87 84 80 82 77 70 68 66 63 56 54 54 51 49 47 45 43 41 40 37 35 33 32 30 29 28 28 27 27 26 24 22 19 17 15 13 10 6 1 357 353
124 124 123 122 121 119 117 116 115 114 113 112 111 109 107 105 104 103 104 109 111 106 98 97 113 126 123 115 110 113 117 117 118 119 117 113 110 109 109 108 107 103 100 96 92 89 87 87 82 78 81 76 70 67 64 61 56 53 52 51 48 45 43 41 39 38 36 33 31 30 29 28 27 27 27 27 26 25 23 21 19 18 16 13 10 5 0 356
126 125 124 123 121 119 117 116 115 114 114 113 111 110 108 106 104 103 106 110 112 109 104 102 113 127 124 116 113 115 117 118 123 123 119 115 113 112 110 109 108 104 101 95 91 88 87 85 81 79 79 74 70 68 64 60 56 53 51 50 47 43 42 39 36 35 33 32 30 29 28 27 27 27 26 26 27 26 25 23 21 20 18 17 14 10 5 0
128 127 125 123 120 118 116 115 115 114 113 112 111 111 109 108 106 107 108 108 107 105 109 113 115 125 127 118 114 117 117 118 124 125 121 118 115 111 108 107 108 106 101 95 92 87 84 84 83 80 74 72 70 67 63 58 56 52 48 48 45 41 39 37 35 32 30 29 28 27 27 27 27 27 26 26 26 27 26 25 23 22 20 19 18 15 11 6
129 128 126 123 120 118 116 115 114 112 111 110 109 109 108 108 107 108 107 106 108 104 106 110 112 128 130 117 114 118 117 118 126 128 122 119 114 108 107 111 112 107 99 94 93 88 83 81 82 83 73 69 69 64 61 57 53 50 46 45 42 38 36 34 32 30 27 25 24 24 24 25 27 27 26 25 26 27 27 26 25 24 22 21 21 19 16 13
129 128 125 123 121 119 116 114 112 110 110 108 108 107 106 106 106 106 103 103 105 103 104 102 110 135 126 114 117 121 120 122 127 127 120 116 113 109 109 114 116 107 97 92 91 87 85 80 78 82 75 67 66 62 59 54 49 47 44 41 38 35 33 31 29 28 26 23 21 21 22 24 26 27 26 25 26 27 27 27 26 25 23 23 22 22 20 17
129 127 124 122 121 118 115 113 111 110 110 108 107 106 105 104 102 101 100 101 100 101 105 102 111 135 121 115 122 120 119 122 123 123 117 113 113 113 113 115 115 106 96 91 89 85 85 81 77 78 74 68 66 61 56 51 46 44 41 37 34 31 30 28 26 25 24 21 20 19 20 23 25 26 26 24 25 27 27 27 27 25 24 23 23 24 22 20
128 126 124 123 120 117 114 111 110 110 110 108 106 105 104 103 102 101 99 99 98 98 103 106 114 129 119 118 119 113 118 123 122 121 117 114 114 113 114 114 112 107 100 91 88 87 85 80 77 76 72 68 64 60 55 48 43 39 37 34 30 28 26 24 24 23 22 20 19 17 19 22 25 26 26 24 24 26 27 27 27 26 25 24 24 25 24 23
128 126 124 123 120 116 113 110 109 108 107 106 106 105 104 103 102 101 99 96 96 98 106 113 117 121 117 116 113 113 125 127 120 116 114 114 114 114 114 112 108 106 103 94 89 89 87 79 75 74 70 67 61 58 53 46 41 36 34 30 26 23 21 20 20 20 19 19 18 16 17 20 23 25 25 24 23 25 27 28 27 27 26 25 25 26 26 25
130 127 125 122 119 115 112 109 107 104 103 103 103 103 104 104 102 99 96 94 95 99 107 115 114 111 111 111 112 121 129 124 114 110 110 112 115 115 112 109 107 104 102 98 93 89 84 75 70 69 66 62 57 53 48 42 38 33 31 28 23 20 18 17 17 17 17 16 16 15 15 18 21 24 25 23 22 24 26 27 28 27 26 25 25 26 27 27
131 127 125 122 119 116 113 110 107 104 102 100 98 98 98 100 101 99 96 95 97 98 100 108 109 106 107 108 114 125 128 120 112 108 109 111 114 115 112 108 107 105 101 98 94 90 83 68 61 59 55 52 48 43 40 37 33 29 27 25 21 18 15 15 15 15 15 15 14 13 13 16 19 22 24 23 22 22 24 27 28 28 27 26 26 26 27 28
130 127 124 122 121 119 116 112 110 108 105 102 100 98 95 93 95 98 99 97 97 98 97 100 103 104 106 110 117 125 126 120 112 111 111 112 115 116 115 114 113 109 105 99 93 89 81 62 51 46 41 37 33 31 30 28 26 23 22 21 19 15 14 14 13 12 14 14 13 12 13 15 18 21 22 22 22 22 23 25 27 28 28 27 26 26 27 29
129 126 125 125 124 121 117 114 112 112 110 107 105 102 98 93 90 94 101 100 96 98 100 100 102 106 111 117 122 125 126 121 116 115 113 113 116 117 118 122 123 114 106 101 92 84 72 52 39 31 27 23 20 19 19 19 18 17 17 17 16 14 13 13 11 11 13 13 12 11 11 13 17 19 21 22 22 21 21 23 25 27 28 27 26 26 26 27
128 127 127 127 126 122 119 118 117 116 115 112 109 104 100 98 95 94 102 104 102 101 104 106 109 113 119 124 129 132 131 125 122 121 117 115 114 116 123 128 128 120 108 97 89 78 58 41 29 21 17 13 11 10 10 10 12 13 13 11 13 14 12 11 10 11 13 13 12 11 10 13 16 18 21 21 21 21 20 21 23 25 26 27 26 26 26 26
130 129 128 126 124 123 122 123 123 123 121 118 115 109 105 104 103 101 103 107 107 108 109 113 119 123 129 133 137 141 136 130 131 130 123 117 112 117 129 134 131 127 121 97 75 55 37 26 18 15 11 8 6 5 4 3 6 9 9 7 9 10 9 9 9 11 12 11 12 11 10 14 17 18 21 22 21 21 20 19 20 22 25 26 26 25 25 26
133 131 129 126 125 125 126 128 129 128 127 125 122 118 116 116 111 110 112 113 115 116 116 121 126 130 135 139 147 149 140 139 145 139 127 114 111 121 129 133 135 140 149 107 31 4 5 2 2 5 5 3 2 1 1 360 2 4 4 4 5 6 6 6 7 10 11 10 12 12 10 13 16 17 20 21 21 21 20 19 19 20 22 25 27 26 25 25
134 132 131 131 131 131 132 134 134 133 134 134 131 129 130 130 125 124 126 123 125 126 127 129 130 133 138 144 152 151 144 149 153 140 123 113 112 122 124 127 142 160 291 325 324 332 336 336 344 350 353 355 354 355 356 356 358 359 358 358 0 2 3 3 4 8 10 11 12 11 11 12 13 17 20 20 20 19 18 19 19 18 20 23 25 27 26 25
137 136 136 136 136 136 138 141 141 143 144 140 138 140 142 142 141 141 140 138 139 138 138 140 137 134 138 144 146 144 144 149 149 136 120 113 111 109 110 115 129 280 337 330 324 328 325 324 331 336 341 344 346 350 352 353 356 356 354 354 357 359 0 1 2 5 8 9 9 10 12 12 11 15 17 18 18 18 17 18 18 19 19 20 22 25 26 25
140 141 141 141 141 141 145 148 148 148 145 139 138 142 145 146 149 152 149 150 150 149 150 151 146 144 144 145 144 142 143 144 138 128 115 108 102 94 96 99 70 343 342 336 333 332 324 324 329 330 334 340 344 348 351 353 354 354 352 352 354 356 357 359 359 1 4 4 6 10 12 10 10 12 14 16 16 16 17 18 18 19 19 19 20 22 24 25
143 144 145 145 146 146 149 152 150 146 142 138 140 142 143 145 148 151 154 158 158 158 161 159 155 154 151 146 144 141 139 137 128 118 111 105 97 87 72 64 40 358 356 346 336 335 330 328 330 331 336 341 346 351 355 355 354 353 353 352 353 353 355 357 357 358 359 359 3 9 10 8 8 9 11 13 14 15 17 18 18 18 19 20 19 20 22 24
142 142 143 143 143 144 147 151 149 146 144 142 143 146 147 146 146 148 152 158 160 162 165 164 161 159 152 146 143 137 130 126 121 111 108 109 102 83 51 39 23 3 2 358 346 342 338 334 334 337 341 348 355 359 359 358 356 354 354 353 353 352 352 354 355 355 355 356 0 4 6 6 6 7 7 8 10 12 14 16 17 18 19 20 20 20 20 22
138 137 137 138 138 139 141 144 146 146 148 150 151 153 155 153 151 153 155 157 159 161 162 165 165 160 154 149 141 131 118 111 112 109 106 107 100 73 43 32 21 10 5 4 2 359 352 348 347 351 356 3 8 7 3 1 358 355 352 352 353 352 349 350 352 353 353 354 357 359 1 2 3 3 3 4 6 7 10 13 15 17 17 19 20 20 20 20
139 139 140 142 144 147 149 151 156 156 157 161 161 161 163 161 158 157 158 160 163 164 165 167 166 162 158 154 142 126 112 105 105 108 105 102 94 69 45 34 25 19 16 14 17 19 16 12 9 11 12 14 15 11 7 3 360 356 354 351 350 348 348 349 349 351 352 353 354 355 357 358 359 360 359 1 2 3 5 9 12 14 16 17 19 20 20 20
146 147 148 152 159 167 173 176 179 179 177 173 169 166 165 164 162 159 158 161 163 167 169 168 166 165 164 156 142 127 113 106 102 102 101 94 90 71 47 38 30 26 27 30 32 32 28 24 21 18 16 15 14 11 6 3 0 358 355 351 348 348 349 351 350 350 351 352 352 353 353 353 354 355 354 356 358 360 1 4 7 11 14 15 17 19 20 20
148 152 153 154 161 170 177 181 187 190 190 185 179 172 166 167 169 168 166 166 166 166 169 169 169 170 168 160 150 138 122 112 105 99 96 89 80 58 38 30 24 24 30 34 35 32 25 21 18 14 12 10 10 7 1 359 359 357 355 353 352 352 352 353 352 351 350 351 351 350 350 350 351 351 351 351 352 355 358 0 2 6 10 12 14 16 18 19
147 150 147 144 147 151 155 163 175 185 189 187 183 176 168 169 174 176 174 171 169 169 169 171 174 176 175 170 163 153 138 126 118 108 96 79 49 19 8 7 5 9 17 18 18 15 9 7 7 5 4 4 3 1 357 357 357 356 354 354 355 356 356 355 354 353 351 350 349 347 347 348 348 348 348 347 348 350 354 357 359 1 4 8 11 13 15 17
148 146 139 136 133 129 129 132 141 157 170 176 178 177 172 170 173 177 177 174 171 172 174 178 182 185 186 184 180 171 161 156 152 140 102 43 358 345 337 337 342 343 349 353 351 351 351 351 352 354 356 355 356 356 355 355 356 354 352 354 356 356 357 357 355 354 353 351 350 348 347 346 346 346 346 346 345 346 349 353 355 357 359 2 6 9 11 13
145 140 135 131 125 118 114 112 112 118 130 148 162 170 172 171 171 173 177 178 175 175 180 183 187 192 196 197 197 193 194 201 205 207 236 313 323 329 324 320 324 327 328 330 331 332 334 336 339 342 345 346 347 350 351 351 352 351 350 353 355 354 355 356 356 355 355 355 353 350 348 346 345 344 344 344 344 344 346 348 350 352 355 357 0 4 7 10
142 138 137 132 123 116 111 108 105 104 109 120 135 152 162 169 173 173 174 177 178 179 183 187 191 197 201 205 209 213 219 226 230 236 250 281 303 313 317 314 315 318 319 319 320 322 323 326 329 333 337 340 341 343 345 347 348 348 348 349 351 353 353 353 354 354 354 355 356 353 350 347 345 343 343 343 343 344 344 344 345 348 351 353 355 358 2 5
141 141 141 135 125 118 114 110 107 104 105 108 113 123 135 146 157 165 169 173 177 180 182 186 191 199 204 209 216 223 228 234 242 252 259 274 293 303 308 310 310 311 314 316 318 319 321 323 325 329 332 335 338 340 341 343 343 344 346 346 347 349 350 351 351 351 351 352 354 354 352 349 346 344 344 343 342 342 342 341 342 344 346 349 351 353 356 360
142 144 140 133 126 120 116 112 107 105 105 104 106 111 115 121 130 143 155 163 170 175 179 184 190 198 205 213 222 229 236 245 255 264 271 279 290 298 301 304 306 308 311 315 318 320 322 324 326 327 329 333 337 338 339 340 341 341 343 343 343 345 346 347 348 348 348 349 351 353 353 351 349 346 345 344 342 340 340 340 340 341 343 345 347 350 352 354
142 142 134 128 126 121 116 112 108 107 105 104 107 111 111 111 117 126 137 148 156 164 172 180 188 196 205 217 229 239 249 261 269 275 282 287 291 296 299 301 304 307 310 312 315 318 321 322 325 327 329 332 335 337 337 338 338 339 340 340 340 341 342 343 345 345 345 345 348 350 350 351 350 347 345 344 342 340 339 338 338 339 340 342 344 346 348 350
142 139 132 129 129 126 122 119 115 111 109 110 111 111 109 109 113 118 124 131 138 146 155 165 178 191 205 225 242 258 270 279 286 289 292 295 296 298 300 302 305 307 309 312 313 316 319 320 323 325 327 329 332 334 336 337 337 336 337 338 338 338 339 340 341 343 343 342 344 347 347 346 348 347 344 344 343 341 339 337 336 337 338 339 341 342 345 347
142 140 136 135 135 133 130 128 122 118 116 114 112 110 108 108 110 112 114 118 122 126 130 132 139 149 159 179 249 290 296 300 304 305 306 307 306 306 305 305 308 309 311 313 314 315 318 320 321 322 324 327 329 331 333 334 335 334 335 338 337 338 339 338 338 339 341 340 340 343 344 341 343 345 343 343 343 341 339 337 335 335 336 337 338 339 341 344
144 143 143 142 140 138 137 133 129 127 124 119 114 111 109 109 108 109 110 111 112 114 114 111 107 106 99 80 50 15 351 342 338 331 329 328 323 320 317 314 313 313 313 313 314 316 318 320 322 323 324 325 325 327 330 332 334 334 335 337 337 337 338 337 336 337 338 339 337 339 342 338 338 342 343 341 342 340 339 338 336 334 334 335 336 337 338 341
148 148 148 147 144 143 142 140 137 136 132 125 120 117 115 114 111 110 110 110 109 107 104 99 92 86 81 70 59 47 34 22 16 7 356 349 342 334 328 323 320 317 316 316 317 318 320 322 324 324 324 324 324 326 329 332 334 333 334 335 334 335 335 334 334 335 336 338 335 336 339 336 334 338 340 340 339 338 338 338 336 335 333 333 334 335 336 338
154 155 154 152 149 147 145 144 143 143 137 131 129 126 123 120 116 112 110 107 105 102 97 93 89 84 80 74 67 61 54 46 39 31 22 15 8 1 353 345 339 333 329 326 323 323 324 326 327 325 324 324 325 326 329 331 332 331 331 332 330 330 331 331 332 333 335 336 335 334 336 336 334 335 337 338 338 336 336 336 336 335 334 332 333 333 334 336
159 161 161 157 152 149 147 145 145 142 137 134 132 130 128 125 119 114 110 106 103 100 96 91 88 83 77 73 67 62 57 51 44 36 29 25 20 16 13 9 5 359 352 346 339 334 332 332 331 328 324 324 325 327 328 329 330 329 327 328 327 327 330 331 331 332 333 334 334 334 334 335 335 334 335 337 337 335 334 334 334 335 334 332 332 332 332 334
166 167 166 163 159 155 152 148 145 141 137 134 132 131 129 126 122 118 113 109 104 100 94 89 84 76 69 67 62 56 53 47 41 35 30 26 21 19 17 14 12 9 5 1 355 349 345 343 341 334 327 326 329 330 329 329 329 327 325 325 327 328 330 331 330 330 332 332 332 332 333 333 334 335 334 335 336 334 332 332 332 333 334 333 332 331 331 332
177 177 175 172 168 167 162 157 153 148 143 139 136 133 132 128 125 122 119 115 109 104 97 88 82 71 62 59 54 47 44 39 34 29 24 21 17 14 13 10 8 6 3 1 358 354 351 349 349 342 332 330 334 334 332 330 328 327 326 326 327 328 329 329 328 327 328 330 329 329 331 331 332 333 333 333 334 333 330 329 329 331 332 332 332 332 331 331
185 186 185 183 182 179 176 171 168 163 158 153 149 146 144 141 135 130 129 124 116 113 106 94 87 75 56 48 40 34 30 26 23 20 15 12 8 6 4 1 359 358 356 355 352 350 348 344 344 342 332 329 334 335 333 330 326 325 326 325 325 326 325 325 324 324 325 327 328 327 329 329 330 330 331 332 333 332 329 327 327 329 330 330 331 332 331 331
193 193 194 194 194 190 186 184 182 180 178 173 170 168 165 163 158 151 149 145 137 132 126 109 96 75 37 27 20 14 13 12 11 10 6 3 0 358 355 352 350 348 347 346 343 342 341 337 335 335 331 326 328 331 329 326 322 322 324 324 323 323 323 324 324 323 324 327 327 327 327 327 327 328 329 330 330 330 328 325 325 327 328 328 329 330 330 330
199 200 201 203 202 199 197 197 196 196 196 195 194 192 191 193 193 190 187 186 188 188 187 207 251 305 327 340 348 352 356 358 359 360 358 357 355 352 349 345 342 341 339 337 335 333 332 331 328 327 326 323 323 325 325 322 320 320 321 321 321 321 323 325 325 324 324 326 327 326 325 324 324 325 326 328 328 328 326 323 322 325 326 327 327 328 328 329
Height
5812 5813 5814 5814 5815 5816 5817 5818 5819 5819 5820 5821 5822 5823 5824 5825 5826 5827 5828 5828 5830 5830 5831 5832 5833 5834 5836 5837 5838 5840 5841 5842 5844 5843 5842 5845 5847 5849 5850 5851 5852 5853 5853 5854 5854 5855 5856 5856 5856 5857 5857 5857 5857 5857 5858 5856 5855 5856 5856 5856 5855 5853 5852 5851 5850 5848 5847 5846 5845 5843 5842 5840 5838 5836 5834 5831 5829 5825 5822 5818 5814 5811 5807 5803 5799 5796 5792 5788
5814 5815 5816 5816 5817 5818 5819 5820 5821 5821 5822 5824 5824 5825 5826 5828 5829 5830 5831 5831 5832 5833 5834 5835 5835 5837 5838 5840 5841 5843 5844 5845 5846 5846 5845 5847 5849 5850 5851 5852 5853 5854 5854 5855 5856 5857 5857 5857 5857 5858 5858 5859 5859 5859 5858 5856 5857 5857 5857 5857 5856 5853 5853 5851 5850 5849 5848 5847 5845 5844 5843 5841 5839 5837 5834 5832 5829 5825 5822 5818 5814 5810 5806 5803 5799 5795 5791 5788
5816 5817 5818 5818 5819 5820 5822 5823 5823 5824 5825 5826 5827 5828 5829 5830 5831 5832 5833 5834 5834 5835 5836 5837 5838 5839 5841 5843 5844 5845 5846 5847 5847 5847 5847 5849 5851 5852 5853 5854 5854 5856 5856 5857 5859 5858 5858 5858 5859 5859 5859 5860 5860 5860 5858 5857 5858 5858 5858 5859 5856 5854 5853 5852 5851 5850 5849 5848 5846 5845 5844 5842 5840 5837 5834 5831 5828 5825 5822 5818 5814 5810 5806 5802 5798 5794 5790 5787
5818 5819 5820 5821 5822 5823 5824 5825 5826 5826 5827 5828 5829 5830 5831 5832 5833 5834 5835 5836 5837 5837 5838 5839 5840 5842 5843 5845 5846 5848 5849 5848 5848 5849 5850 5851 5852 5853 5855 5855 5856 5857 5858 5859 5860 5860 5859 5859 5860 5861 5860 5861 5861 5861 5858 5858 5859 5859 5859 5859 5857 5855 5854 5853 5852 5851 5850 5849 5847 5846 5844 5842 5839 5836 5834 5831 5828 5824 5820 5817 5813 5809 5805 5801 5797 5793 5789 5785
5821 5821 5822 5823 5824 5825 5826 5828 5828 5829 5830 5831 5831 5833 5834 5834 5836 5836 5837 5839 5839 5840 5841 5842 5843 5844 5845 5847 5849 5850 5851 5849 5849 5851 5852 5853 5854 5855 5856 5857 5858 5858 5860 5862 5862 5861 5861 5861 5861 5861 5861 5863 5862 5861 5860 5859 5860 5861 5861 5859 5857 5855 5855 5854 5853 5852 5850 5849 5848 5846 5844 5842 5839 5836 5833 5830 5827 5823 5819 5816 5812 5808 5804 5800 5796 5792 5788 5784
5823 5824 5824 5825 5826 5827 5829 5830 5831 5831 5832 5833 5834 5835 5836 5837 5838 5839 5840 5841 5842 5842 5843 5844 5845 5846 5847 5849 5850 5851 5852 5851 5851 5853 5854 5855 5856 5857 5858 5859 5860 5861 5862 5864 5863 5862 5863 5862 5861 5861 5863 5864 5862 5862 5861 5860 5861 5863 5862 5859 5858 5856 5855 5855 5853 5852 5851 5850 5848 5846 5844 5841 5839 5836 5833 5830 5826 5823 5819 5816 5812 5808 5803 5799 5795 5790 5786 5782
5826 5826 5827 5828 5829 5830 5831 5832 5833 5834 5835 5836 5837 5838 5839 5839 5840 5841 5842 5843 5844 5845 5846 5847 5847 5848 5849 5850 5851 5852 5853 5854 5854 5855 5856 5857 5858 5859 5860 5860 5862 5863 5864 5865 5864 5864 5864 5863 5861 5862 5865 5865 5863 5863 5862 5862 5862 5863 5862 5860 5859 5857 5856 5856 5854 5853 5852 5850 5849 5847 5844 5842 5839 5836 5833 5830 5826 5823 5819 5815 5811 5807 5803 5798 5794 5790 5786 5782
5828 5829 5829 5830 5832 5833 5834 5835 5836 5836 5837 5838 5839 5840 5841 5842 5843 5843 5844 5845 5846 5847 5848 5849 5850 5851 5851 5852 5851 5852 5855 5856 5856 5858 5859 5860 5861 5861 5862 5862 5863 5864 5866 5866 5865 5866 5865 5863 5862 5864 5866 5865 5864 5864 5863 5864 5864 5863 5863 5860 5859 5858 5857 5856 5855 5854 5852 5851 5849 5847 5845 5842 5839 5836 5833 5830 5827 5823 5819 5816 5811 5807 5802 5798 5793 5789 5785 5781
5830 5831 5832 5833 5834 5836 5836 5837 5838 5839 5840 5841 5842 5842 5843 5844 5844 5845 5846 5847 5848 5849 5850 5851 5852 5853 5853 5854 5852 5852 5857 5858 5858 5860 5861 5862 5863 5863 5863 5864 5865 5866 5867 5867 5867 5867 5865 5864 5865 5865 5866 5867 5866 5864 5864 5865 5865 5864 5863 5861 5860 5859 5858 5857 5856 5854 5853 5851 5849 5847 5845 5842 5839 5836 5834 5831 5827 5823 5820 5816 5811 5807 5802 5797 5793 5789 5784 5780
5833 5834 5835 5836 5837 5838 5839 5840 5840 5841 5842 5843 5844 5845 5845 5846 5846 5847 5848 5849 5850 5851 5852 5852 5854 5854 5855 5855 5854 5855 5858 5860 5861 5862 5863 5864 5864 5865 5865 5865 5866 5867 5868 5868 5868 5868 5866 5866 5867 5866 5867 5868 5867 5866 5865 5866 5866 5864 5863 5862 5861 5860 5859 5858 5856 5855 5853 5852 5850 5848 5845 5843 5840 5837 5835 5831 5827 5824 5820 5816 5812 5807 5803 5798 5793 5788 5783 5779
5835 5836 5837 5838 5839 5840 5841 5842 5843 5844 5844 5845 5846 5847 5847 5848 5848 5849 5850 5850 5851 5851 5853 5854 5856 5856 5856 5856 5856 5858 5860 5861 5863 5864 5865 5866 5865 5866 5867 5867 5868 5869 5869 5869 5869 5869 5868 5868 5868 5867 5868 5869 5868 5867 5867 5867 5866 5865 5864 5863 5862 5861 5860 5858 5857 5856 5854 5852 5850 5848 5845 5843 5841 5838 5835 5831 5828 5824 5820 5816 5812 5808 5803 5798 5793 5788 5783 5778
5838 5839 5840 5841 5841 5842 5843 5844 5844 5845 5846 5847 5848 5849 5849 5850 5850 5851 5852 5852 5852 5853 5854 5856 5857 5858 5858 5857 5858 5860 5862 5863 5865 5865 5866 5868 5868 5868 5869 5869 5870 5870 5870 5870 5870 5870 5870 5869 5868 5869 5870 5869 5869 5868 5868 5868 5867 5867 5865 5864 5863 5862 5861 5859 5858 5856 5854 5853 5850 5848 5846 5844 5841 5838 5835 5831 5828 5824 5820 5817 5812 5808 5803 5798 5793 5788 5782 5777
5840 5841 5842 5843 5843 5844 5845 5846 5847 5847 5848 5849 5850 5850 5851 5851 5852 5853 5853 5854 5854 5855 5856 5857 5858 5860 5860 5859 5860 5862 5863 5865 5867 5867 5868 5869 5870 5870 5870 5871 5871 5872 5872 5870 5871 5871 5871 5871 5869 5871 5872 5870 5870 5870 5869 5869 5868 5868 5866 5865 5864 5863 5861 5860 5858 5857 5855 5853 5851 5849 5847 5845 5842 5838 5835 5832 5829 5825 5821 5817 5813 5809 5804 5799 5793 5788 5782 5777
5842 5843 5844 5845 5845 5846 5847 5848 5849 5849 5850 5851 5851 5852 5852 5853 5854 5854 5855 5856 5856 5856 5857 5858 5859 5861 5862 5861 5862 5864 5865 5867 5869 5870 5870 5871 5872 5871 5871 5873 5874 5874 5873 5872 5872 5872 5873 5873 5870 5872 5873 5871 5871 5871 5870 5870 5869 5868 5867 5866 5865 5864 5862 5860 5859 5857 5855 5853 5851 5849 5848 5845 5842 5838 5836 5833 5829 5826 5822 5818 5814 5810 5804 5799 5794 5788 5783 5778
5844 5845 5846 5847 5847 5848 5849 5850 5851 5851 5852 5853 5853 5854 5854 5855 5855 5856 5856 5857 5858 5858 5859 5860 5862 5863 5863 5864 5865 5866 5868 5869 5870 5872 5872 5872 5872 5873 5873 5874 5875 5875 5874 5873 5873 5873 5874 5875 5872 5872 5874 5873 5872 5872 5871 5871 5870 5869 5868 5867 5866 5864 5862 5861 5860 5858 5856 5854 5852 5850 5847 5845 5842 5839 5836 5833 5830 5826 5822 5818 5814 5809 5804 5799 5794 5789 5784 5778
5846 5847 5847 5848 5849 5850 5851 5852 5852 5853 5854 5854 5855 5855 5856 5856 5857 5857 5858 5859 5860 5860 5861 5862 5864 5865 5864 5866 5867 5868 5870 5871 5872 5873 5873 5873 5874 5875 5875 5876 5876 5876 5876 5875 5874 5874 5875 5876 5874 5874 5874 5874 5873 5872 5872 5871 5870 5870 5869 5867 5866 5865 5863 5862 5860 5858 5857 5854 5852 5850 5848 5845 5843 5840 5837 5834 5830 5827 5823 5819 5814 5810 5805 5801 5795 5790 5785 5779
5847 5848 5849 5850 5851 5852 5853 5853 5854 5855 5855 5856 5856 5857 5857 5858 5858 5859 5860 5860 5861 5862 5863 5863 5865 5867 5866 5868 5869 5870 5872 5873 5873 5874 5874 5875 5875 5876 5877 5877 5877 5877 5877 5876 5876 5876 5877 5877 5876 5875 5875 5875 5874 5873 5873 5872 5871 5870 5869 5868 5867 5865 5864 5863 5861 5859 5857 5855 5853 5851 5849 5847 5844 5841 5838 5835 5831 5827 5824 5819 5815 5811 5807 5802 5796 5791 5785 5780
5849 5850 5851 5852 5853 5854 5854 5855 5856 5856 5857 5857 5858 5859 5859 5860 5860 5861 5861 5862 5862 5864 5865 5865 5867 5868 5868 5869 5871 5872 5873 5874 5875 5875 5876 5876 5877 5877 5878 5878 5878 5878 5878 5878 5877 5877 5878 5878 5877 5877 5876 5876 5875 5874 5874 5873 5872 5871 5870 5868 5867 5866 5865 5863 5861 5860 5858 5856 5854 5852 5850 5848 5845 5841 5838 5835 5832 5828 5824 5820 5816 5812 5807 5802 5797 5792 5787 5781
5850 5851 5852 5853 5854 5855 5856 5856 5857 5858 5859 5859 5860 5860 5861 5861 5862 5862 5862 5863 5864 5866 5867 5867 5868 5869 5870 5871 5872 5874 5875 5876 5876 5876 5877 5877 5878 5879 5879 5879 5879 5879 5879 5879 5879 5879 5879 5879 5879 5878 5877 5877 5876 5875 5874 5873 5872 5871 5870 5869 5868 5867 5865 5864 5862 5860 5858 5856 5854 5852 5850 5847 5844 5841 5839 5836 5833 5829 5825 5821 5817 5812 5808 5804 5799 5794 5788 5782
5852 5853 5854 5855 5855 5856 5857 5858 5859 5860 5860 5861 5861 5862 5863 5863 5863 5863 5864 5865 5866 5867 5868 5869 5869 5871 5872 5872 5873 5875 5876 5877 5877 5878 5878 5878 5879 5879 5880 5880 5880 5880 5880 5880 5880 5880 5880 5880 5880 5879 5879 5878 5877 5876 5875 5874 5873 5872 5871 5870 5869 5867 5866 5864 5862 5860 5859 5857 5855 5852 5850 5847 5845 5842 5840 5837 5834 5830 5826 5822 5818 5814 5810 5805 5800 5795 5789 5783
5853 5854 5855 5856 5857 5858 5858 5859 5860 5861 5862 5862 5863 5864 5864 5865 5865 5865 5866 5867 5868 5869 5869 5870 5871 5872 5873 5874 5875 5876 5877 5877 5878 5879 5879 5879 5880 5880 5880 5881 5881 5881 5881 5881 5881 5881 5881 5881 5881 5880 5880 5879 5878 5877 5876 5875 5874 5873 5872 5870 5869 5868 5866 5864 5862 5861 5859 5857 5855 5853 5851 5848 5846 5843 5841 5838 5835 5831 5827 5824 5820 5816 5811 5806 5801 5796 5791 5786
5854 5855 5856 5857 5858 5859 5859 5860 5861 5862 5863 5864 5864 5865 5865 5866 5866 5867 5867 5868 5869 5870 5871 5871 5872 5873 5874 5875 5876 5877 5878 5878 5879 5879 5880 5880 5880 5881 5881 5882 5882 5882 5882 5882 5882 5882 5882 5882 5881 5881 5880 5880 5879 5878 5877 5876 5875 5873 5872 5871 5870 5868 5866 5865 5863 5861 5860 5858 5856 5854 5851 5849 5847 5844 5841 5838 5835 5832 5829 5825 5820 5816 5811 5806 5802 5798 5793 5788
5856 5857 5858 5858 5859 5860 5860 5861 5862 5863 5864 5865 5866 5866 5867 5867 5868 5869 5869 5869 5871 5871 5872 5873 5874 5875 5876 5876 5877 5878 5879 5879 5880 5880 5880 5881 5881 5881 5882 5882 5882 5883 5882 5882 5882 5882 5882 5882 5882 5881 5881 5880 5880 5879 5878 5877 5875 5874 5873 5871 5870 5869 5867 5865 5863 5862 5860 5858 5857 5854 5852 5850 5848 5845 5842 5839 5836 5832 5829 5825 5821 5816 5812 5808 5804 5800 5795 5790
5857 5858 5859 5860 5860 5861 5862 5862 5863 5864 5865 5866 5867 5867 5868 5868 5869 5870 5870 5870 5872 5873 5873 5874 5875 5876 5876 5877 5878 5879 5879 5880 5880 5880 5881 5881 5881 5882 5882 5883 5883 5883 5883 5883 5883 5883 5883 5882 5882 5882 5881 5881 5880 5879 5878 5877 5876 5874 5873 5872 5870 5869 5867 5865 5864 5862 5860 5859 5857 5855 5853 5851 5848 5846 5842 5839 5836 5832 5829 5826 5822 5818 5814 5810 5805 5801 5797 5792
5858 5859 5860 5860 5861 5862 5863 5864 5864 5865 5866 5867 5867 5868 5868 5869 5870 5871 5871 5872 5872 5873 5874 5875 5876 5876 5877 5878 5878 5879 5879 5880 5880 5881 5881 5881 5882 5882 5883 5883 5883 5883 5883 5883 5883 5883 5883 5883 5882 5882 5882 5881 5880 5879 5878 5877 5876 5875 5873 5872 5870 5869 5867 5865 5864 5862 5861 5859 5858 5855 5853 5851 5848 5846 5843 5840 5837 5833 5831 5827 5823 5820 5816 5812 5807 5803 5799 5794
5859 5860 5860 5861 5862 5863 5864 5865 5865 5866 5866 5867 5868 5868 5869 5870 5870 5871 5872 5872 5873 5874 5875 5876 5876 5877 5877 5878 5879 5879 5880 5880 5881 5881 5882 5882 5882 5883 5883 5883 5883 5883 5883 5883 5883 5883 5883 5883 5883 5882 5882 5881 5880 5880 5879 5878 5876 5875 5873 5872 5870 5869 5867 5865 5864 5862 5861 5859 5857 5855 5853 5851 5848 5846 5843 5840 5838 5835 5832 5828 5825 5821 5818 5813 5809 5805 5801 5797
5860 5860 5861 5862 5863 5864 5864 5865 5866 5867 5867 5867 5868 5869 5869 5870 5871 5872 5872 5873 5874 5875 5875 5876 5877 5877 5878 5878 5879 5880 5880 5881 5881 5882 5882 5882 5883 5883 5883 5883 5884 5884 5884 5883 5883 5883 5883 5883 5882 5882 5882 5881 5880 5880 5879 5878 5876 5874 5873 5871 5870 5868 5867 5865 5864 5862 5861 5859 5857 5856 5854 5851 5849 5846 5843 5841 5838 5835 5832 5828 5825 5821 5818 5814 5810 5806 5802 5798
5860 5861 5862 5863 5864 5864 5865 5866 5867 5867 5867 5868 5868 5869 5870 5870 5871 5872 5873 5874 5874 5875 5876 5877 5877 5878 5879 5879 5880 5880 5881 5881 5882 5882 5882 5883 5883 5883 5883 5884 5884 5884 5884 5884 5883 5883 5883 5883 5882 5882 5882 5881 5880 5880 5878 5877 5876 5874 5873 5871 5869 5868 5867 5865 5863 5862 5861 5859 5858 5856 5854 5851 5849 5846 5843 5841 5838 5835 5832 5828 5825 5822 5818 5814 5811 5807 5803 5799
5861 5862 5863 5863 5864 5865 5865 5866 5867 5867 5868 5868 5869 5869 5870 5871 5871 5872 5873 5874 5874 5875 5876 5877 5878 5878 5879 5880 5880 5881 5881 5882 5882 5882 5882 5883 5883 5883 5884 5884 5884 5884 5884 5884 5883 5883 5883 5883 5882 5882 5881 5881 5880 5879 5878 5877 5876 5874 5873 5871 5869 5868 5866 5865 5863 5862 5860 5859 5858 5856 5853 5851 5849 5846 5843 5841 5838 5835 5832 5829 5825 5822 5819 5815 5812 5809 5805 5800
5861 5862 5863 5864 5864 5865 5866 5866 5867 5867 5868 5868 5869 5869 5870 5871 5872 5872 5873 5874 5875 5876 5876 5877 5878 5879 5880 5880 5881 5881 5882 5882 5882 5882 5883 5883 5883 5883 5884 5884 5884 5884 5884 5884 5883 5883 5883 5882 5882 5882 5881 5881 5880 5879 5878 5876 5875 5874 5873 5871 5870 5868 5866 5864 5863 5862 5860 5859 5857 5855 5853 5851 5848 5846 5843 5840 5838 5835 5832 5829 5827 5823 5820 5817 5813 5809 5806 5802
5861 5862 5863 5864 5864 5865 5866 5866 5867 5867 5868 5868 5869 5870 5870 5871 5872 5873 5874 5874 5875 5876 5877 5878 5879 5879 5880 5881 5881 5882 5882 5882 5883 5883 5883 5883 5883 5884 5884 5884 5884 5884 5884 5884 5883 5883 5882 5882 5882 5882 5881 5880 5879 5878 5877 5876 5875 5874 5872 5871 5870 5868 5867 5865 5863 5862 5860 5858 5856 5855 5853 5850 5848 5846 5843 5841 5838 5835 5832 5830 5827 5824 5821 5818 5814 5810 5806 5803
5862 5862 5863 5864 5864 5865 5866 5866 5867 5867 5868 5869 5869 5870 5871 5872 5872 5873 5874 5875 5876 5876 5877 5878 5879 5880 5881 5881 5882 5882 5883 5883 5883 5883 5883 5884 5884 5884 5884 5884 5884 5884 5884 5884 5883 5883 5882 5882 5882 5881 5881 5880 5879 5878 5877 5876 5875 5874 5872 5871 5870 5869 5867 5865 5863 5862 5860 5858 5856 5854 5852 5850 5848 5845 5843 5841 5838 5836 5833 5830 5827 5824 5821 5818 5814 5811 5807 5803
5862 5863 5863 5864 5864 5865 5866 5866 5867 5867 5868 5869 5869 5870 5871 5872 5873 5873 5874 5875 5876 5877 5877 5878 5879 5880 5881 5882 5882 5883 5883 5883 5883 5883 5884 5884 5884 5884 5884 5884 5884 5884 5884 5883 5883 5883 5882 5882 5882 5881 5881 5880 5879 5878 5877 5876 5875 5874 5872 5871 5870 5868 5867 5865 5863 5861 5859 5857 5855 5853 5851 5850 5847 5845 5843 5840 5838 5836 5833 5831 5828 5825 5821 5818 5815 5811 5808 5804
5862 5863 5863 5864 5865 5865 5866 5866 5866 5867 5868 5869 5869 5870 5871 5872 5873 5874 5874 5875 5876 5877 5878 5879 5880 5881 5881 5882 5883 5883 5883 5883 5884 5884 5884 5884 5884 5884 5884 5884 5884 5884 5884 5883 5883 5883 5882 5882 5882 5881 5880 5880 5879 5878 5877 5876 5875 5874 5872 5871 5869 5868 5866 5864 5863 5861 5858 5857 5855 5853 5851 5849 5847 5845 5842 5840 5838 5836 5833 5831 5828 5825 5822 5819 5815 5812 5809 5805
5862 5863 5864 5864 5865 5865 5865 5866 5866 5867 5867 5868 5869 5870 5871 5872 5873 5873 5874 5875 5876 5877 5878 5879 5880 5881 5881 5882 5883 5883 5883 5884 5884 5884 5884 5884 5884 5884 5884 5884 5884 5884 5884 5884 5883 5883 5882 5882 5881 5881 5880 5879 5879 5878 5877 5876 5875 5873 5872 5870 5869 5867 5866 5864 5862 5860 5858 5856 5855 5853 5851 5849 5846 5845 5842 5840 5837 5835 5833 5830 5828 5825 5822 5819 5816 5812 5809 5806
5863 5863 5864 5865 5865 5865 5866 5866 5866 5867 5867 5868 5869 5870 5871 5872 5872 5873 5874 5875 5876 5877 5878 5879 5880 5881 5881 5882 5883 5883 5884 5884 5884 5884 5884 5884 5884 5884 5884 5884 5884 5884 5884 5884 5883 5883 5882 5882 5881 5881 5880 5879 5878 5878 5877 5876 5875 5873 5872 5870 5869 5867 5866 5864 5862 5860 5859 5857 5855 5852 5850 5848 5846 5844 5842 5840 5837 5834 5832 5830 5828 5825 5822 5819 5816 5813 5810 5806
5863 5864 5864 5865 5866 5866 5866 5866 5866 5867 5867 5868 5869 5870 5871 5872 5872 5873 5874 5875 5876 5876 5877 5878 5879 5880 5881 5882 5883 5883 5884 5884 5884 5884 5884 5884 5884 5884 5884 5884 5884 5884 5884 5883 5883 5883 5882 5881 5881 5880 5880 5879 5878 5877 5876 5875 5874 5873 5872 5870 5869 5867 5865 5864 5863 5861 5859 5857 5855 5852 5849 5847 5845 5843 5841 5839 5837 5834 5832 5829 5827 5825 5822 5819 5816 5813 5810 5807
5863 5864 5865 5866 5866 5866 5866 5867 5867 5867 5868 5868 5869 5870 5871 5871 5872 5873 5874 5875 5875 5876 5877 5878 5879 5880 5881 5882 5882 5883 5883 5884 5884 5884 5884 5884 5884 5884 5884 5884 5884 5883 5883 5883 5883 5882 5882 5881 5880 5880 5879 5878 5878 5877 5876 5875 5874 5873 5871 5870 5868 5867 5865 5863 5862 5860 5858 5857 5855 5852 5850 5847 5844 5842 5841 5838 5836 5833 5831 5829 5826 5824 5822 5819 5816 5813 5810 5807
5864 5864 5865 5866 5866 5866 5867 5867 5868 5868 5868 5869 5869 5870 5871 5871 5872 5873 5874 5875 5875 5876 5877 5878 5879 5880 5881 5881 5882 5882 5883 5883 5884 5884 5884 5884 5884 5884 5883 5883 5883 5883 5883 5882 5882 5882 5881 5880 5880 5879 5879 5878 5877 5876 5875 5874 5873 5872 5871 5869 5868 5866 5865 5863 5861 5859 5857 5855 5854 5852 5850 5847 5844 5842 5839 5837 5835 5832 5830 5828 5826 5823 5821 5818 5816 5813 5810 5807
5864 5865 5865 5866 5866 5867 5867 5868 5868 5868 5869 5869 5870 5870 5871 5872 5872 5873 5874 5875 5875 5876 5877 5878 5879 5880 5880 5881 5882 5882 5883 5883 5883 5883 5883 5883 5883 5883 5883 5883 5882 5882 5882 5882 5881 5881 5880 5880 5879 5878 5878 5877 5876 5875 5874 5873 5872 5871 5870 5868 5867 5865 5864 5862 5860 5858 5856 5854 5852 5851 5849 5846 5843 5840 5838 5836 5834 5831 5829 5827 5825 5822 5820 5817 5815 5812 5809 5806
5864 5865 5865 5866 5866 5867 5867 5868 5868 5869 5870 5870 5871 5871 5872 5872 5873 5873 5874 5875 5876 5877 5877 5878 5879 5880 5880 5881 5881 5882 5882 5882 5883 5883 5883 5883 5882 5882 5882 5882 5882 5882 5881 5881 5881 5880 5880 5879 5878 5878 5877 5876 5876 5875 5873 5872 5871 5870 5869 5868 5866 5865 5863 5862 5860 5858 5856 5854 5852 5850 5847 5845 5843 5840 5837 5835 5833 5830 5828 5825 5823 5821 5819 5816 5814 5811 5809 5806
5864 5865 5865 5866 5867 5867 5868 5869 5869 5870 5870 5871 5871 5872 5872 5873 5873 5874 5875 5876 5876 5877 5878 5879 5879 5880 5880 5881 5881 5882 5882 5882 5882 5882 5882 5882 5882 5881 5881 5881 5881 5881 5880 5880 5880 5879 5879 5878 5878 5877 5876 5875 5875 5874 5872 5871 5870 5868 5868 5867 5865 5864 5862 5860 5859 5857 5855 5853 5851 5849 5847 5844 5843 5840 5838 5835 5833 5830 5827 5824 5822 5819 5817 5815 5813 5810 5808 5805
5864 5865 5866 5866 5867 5868 5869 5869 5870 5870 5871 5872 5872 5872 5873 5874 5874 5875 5875 5876 5877 5877 5878 5879 5879 5880 5880 5881 5881 5881 5881 5882 5882 5881 5881 5881 5881 5881 5880 5880 5880 5880 5879 5879 5879 5878 5878 5877 5877 5876 5875 5874 5874 5873 5871 5870 5868 5867 5866 5865 5864 5862 5861 5859 5857 5856 5854 5852 5850 5848 5846 5843 5842 5840 5837 5834 5832 5829 5826 5823 5820 5818 5816 5814 5812 5809 5807 5804
5865 5866 5866 5867 5868 5868 5869 5870 5870 5871 5872 5872 5873 5873 5874 5874 5875 5875 5876 5877 5877 5878 5878 5879 5879 5880 5880 5881 5881 5881 5881 5881 5881 5881 5881 5880 5880 5880 5880 5879 5879 5879 5878 5878 5878 5877 5876 5876 5875 5874 5874 5873 5872 5872 5870 5869 5867 5866 5864 5863 5862 5861 5859 5858 5856 5855 5853 5851 5848 5846 5845 5842 5839 5838 5836 5833 5831 5828 5825 5822 5819 5817 5815 5813 5810 5808 5806 5803
5865 5866 5867 5868 5868 5869 5870 5870 5871 5872 5872 5873 5873 5874 5874 5875 5875 5876 5877 5877 5878 5878 5879 5879 5880 5880 5880 5881 5881 5881 5881 5881 5881 5881 5880 5880 5880 5879 5879 5878 5878 5878 5877 5877 5876 5876 5875 5875 5874 5873 5872 5872 5871 5870 5869 5867 5866 5864 5863 5861 5860 5859 5858 5856 5855 5853 5852 5850 5847 5845 5843 5840 5837 5836 5834 5832 5829 5827 5824 5821 5818 5816 5813 5811 5809 5806 5804 5802
5866 5867 5867 5868 5869 5869 5870 5871 5871 5872 5872 5873 5873 5874 5875 5875 5876 5876 5877 5877 5878 5878 5879 5879 5880 5880 5880 5880 5881 5881 5881 5881 5880 5880 5880 5880 5879 5879 5878 5878 5877 5877 5876 5876 5875 5874 5874 5873 5873 5872 5871 5870 5869 5868 5867 5866 5865 5863 5862 5860 5859 5857 5856 5854 5853 5852 5850 5849 5847 5844 5842 5840 5836 5833 5832 5830 5827 5825 5822 5820 5818 5815 5812 5809 5807 5805 5803 5800
5866 5867 5868 5868 5869 5870 5870 5871 5872 5872 5873 5873 5874 5874 5875 5875 5876 5876 5877 5878 5878 5879 5879 5879 5880 5880 5880 5880 5881 5881 5881 5880 5880 5880 5880 5879 5879 5878 5878 5877 5877 5876 5875 5875 5874 5873 5873 5872 5871 5870 5869 5868 5868 5867 5866 5864 5863 5862 5860 5859 5858 5856 5855 5853 5851 5850 5848 5846 5845 5843 5841 5839 5836 5832 5829 5827 5826 5823 5821 5819 5816 5814 5811 5808 5806 5804 5801 5799
5866 5867 5868 5869 5869 5870 5871 5871 5872 5873 5873 5874 5874 5875 5875 5876 5876 5877 5877 5878 5878 5879 5879 5880 5880 5880 5880 5881 5881 5881 5881 5881 5880 5880 5880 5879 5879 5878 5877 5877 5876 5875 5875 5874 5873 5873 5872 5871 5871 5869 5868 5867 5867 5866 5865 5863 5862 5860 5858 5857 5856 5855 5853 5852 5850 5848 5847 5845 5842 5841 5838 5836 5834 5832 5828 5825 5823 5821 5818 5816 5814 5813 5810 5808 5805 5802 5800 5797
5865 5866 5867 5868 5869 5870 5871 5871 5872 5873 5873 5874 5875 5875 5876 5876 5877 5877 5878 5878 5878 5879 5879 5880 5880 5880 5881 5881 5881 5881 5881 5881 5880 5880 5880 5879 5878 5878 5877 5877 5876 5875 5875 5874 5873 5872 5872 5871 5870 5869 5867 5866 5866 5865 5864 5862 5860 5859 5857 5855 5854 5853 5852 5850 5849 5846 5845 5843 5841 5839 5837 5834 5832 5830 5827 5824 5821 5818 5816 5814 5812 5810 5808 5806 5803 5801 5798 5796
5865 5866 5867 5868 5869 5870 5871 5871 5872 5873 5873 5874 5875 5875 5876 5876 5877 5877 5878 5878 5878 5879 5879 5880 5880 5880 5880 5881 5881 5881 5881 5880 5880 5880 5879 5879 5878 5878 5877 5876 5876 5875 5874 5874 5873 5872 5871 5870 5870 5869 5867 5865 5865 5864 5863 5861 5859 5857 5856 5855 5853 5852 5850 5849 5847 5845 5843 5842 5839 5837 5835 5832 5830 5827 5825 5822 5820 5817 5814 5811 5809 5808 5806 5803 5801 5799 5797 5794
5864 5865 5866 5867 5868 5869 5870 5871 5872 5872 5873 5874 5875 5875 5876 5876 5877 5877 5878 5878 5878 5879 5879 5879 5880 5880 5880 5880 5880 5880 5880 5880 5880 5879 5879 5878 5878 5877 5876 5875 5875 5874 5873 5873 5872 5871 5871 5870 5869 5868 5867 5865 5864 5864 5862 5860 5858 5856 5855 5854 5852 5850 5849 5847 5845 5842 5841 5839 5837 5835 5832 5830 5828 5825 5823 5820 5818 5815 5812 5809 5807 5805 5803 5801 5799 5797 5794 5792
5862 5864 5865 5866 5867 5868 5869 5870 5871 5872 5872 5873 5874 5875 5875 5876 5876 5877 5877 5878 5878 5878 5879 5879 5879 5879 5879 5880 5880 5880 5879 5879 5879 5879 5878 5878 5877 5876 5875 5874 5874 5873 5872 5871 5870 5870 5869 5868 5867 5867 5866 5865 5863 5863 5861 5859 5857 5855 5853 5852 5850 5848 5847 5845 5842 5839 5838 5836 5835 5833 5830 5827 5825 5823 5820 5818 5816 5814 5811 5807 5805 5803 5801 5799 5797 5794 5792 5790